Powrót do katalogu

FENGYUN 1C DEB

AktywnySSO
NORAD 30092·DEBRIS·🇨🇳 China

Wystrzelony May 10, 1999 z Taiyuan Satellite Launch Center

Loading…

Następne Przeloty (najbliższe 24 godziny)

TLE

ŚwieżeSource: Space-Track

Epoka: Sep 14, 2026, 01:37 UTC

1 30092U 99025QV  26257.06765090  .00000903  00000-0  29124-3 0  9997
2 30092  98.9245  92.7366 0082575 156.0145 327.6506 14.39880354 27020

Śledź FENGYUN 1C DEB w czasie rzeczywistym z AllMySat

Download on the App Store